Time,TemperatureF,DewpointF,PressureIn,WindDirection,WindDirectionDegrees,WindSpeedMPH,WindSpeedGustMPH,Humidity,HourlyPrecipIn,Conditions,Clouds,dailyrainin,SoftwareType,DateUTC
2013-08-14 00:12:00,69.0,66.0,29.74,WSW,240,0.0,0.0,89,0.00,,,0.22,,2013-08-14 04:12:00,
2013-08-14 00:23:00,68.0,65.0,29.74,WSW,240,0.0,0.0,89,0.00,,,0.22,,2013-08-14 04:23:00,
2013-08-14 00:52:00,68.0,65.0,29.74,WSW,240,0.0,0.0,89,0.00,,,0.46,,2013-08-14 04:52:00,
2013-08-14 01:12:00,67.0,64.0,29.74,WSW,240,0.0,0.0,89,0.00,,,0.46,,2013-08-14 05:12:00,
2013-08-14 01:22:00,67.0,64.0,29.74,WSW,240,0.0,0.0,90,0.00,,,0.46,,2013-08-14 05:22:00,
2013-08-14 01:51:00,67.0,64.0,29.75,WSW,240,0.0,0.0,90,0.00,,,0.46,,2013-08-14 05:51:00,
2013-08-14 02:21:00,66.0,63.0,29.74,WSW,240,0.0,0.0,90,0.00,,,0.46,,2013-08-14 06:21:00,
2013-08-14 02:52:00,66.0,63.0,29.74,SSW,207,0.0,2.0,90,0.00,,,0.46,,2013-08-14 06:52:00,
2013-08-14 03:21:00,64.0,61.0,29.75,SSW,197,0.0,1.0,89,0.00,,,0.46,,2013-08-14 07:21:00,
2013-08-14 03:52:00,63.0,60.0,29.75,West,272,0.0,2.0,89,0.00,,,0.46,,2013-08-14 07:52:00,
2013-08-14 04:21:00,62.0,59.0,29.75,ENE,57,0.0,2.0,89,0.00,,,0.46,,2013-08-14 08:21:00,
2013-08-14 04:52:00,61.0,57.0,29.76,ENE,57,0.0,0.0,88,0.00,,,0.46,,2013-08-14 08:52:00,
2013-08-14 05:21:00,60.0,56.0,29.76,SSE,157,0.0,2.0,86,0.00,,,0.46,,2013-08-14 09:21:00,
2013-08-14 05:53:00,59.0,54.0,29.77,ESE,111,0.0,1.0,84,0.00,,,0.46,,2013-08-14 09:53:00,
2013-08-14 06:12:00,58.0,52.0,29.77,SSE,157,0.0,0.0,81,0.00,,,0.46,,2013-08-14 10:12:00,
2013-08-14 06:23:00,58.0,52.0,29.79,SSE,157,0.0,0.0,80,0.00,,,0.46,,2013-08-14 10:23:00,
2013-08-14 06:52:00,57.0,50.0,29.80,SSE,162,0.0,0.0,78,0.00,,,0.46,,2013-08-14 10:52:00,
2013-08-14 07:21:00,57.0,50.0,29.80,East,85,0.0,5.0,78,0.00,,,0.46,,2013-08-14 11:21:00,
2013-08-14 07:52:00,58.0,51.0,29.80,NE,46,0.0,7.0,77,0.00,,,0.46,,2013-08-14 11:52:00,
2013-08-14 08:11:00,58.0,50.0,29.81,East,86,0.0,0.0,75,0.00,,,0.46,,2013-08-14 12:11:00,
2013-08-14 08:21:00,59.0,51.0,29.82,South,173,1.0,3.0,75,0.00,,,0.46,,2013-08-14 12:21:00,
2013-08-14 08:52:00,61.0,51.0,29.82,SSE,168,0.0,2.0,70,0.00,,,0.24,,2013-08-14 12:52:00,
2013-08-14 09:11:00,62.0,50.0,29.82,East,91,0.0,1.0,64,0.00,,,0.22,,2013-08-14 13:11:00,
2013-08-14 09:22:00,62.0,50.0,29.82,East,91,0.0,1.0,64,0.00,,,0.22,,2013-08-14 13:22:00,
2013-08-14 09:52:00,64.0,51.0,29.82,SW,214,0.0,4.0,62,0.00,,,0.16,,2013-08-14 13:52:00,
2013-08-14 10:22:00,65.0,49.0,29.82,East,98,1.0,4.0,57,0.00,,,0.10,,2013-08-14 14:22:00,
2013-08-14 10:52:00,66.0,51.0,29.83,SSE,151,1.0,5.0,59,0.00,,,0.06,,2013-08-14 14:52:00,
2013-08-14 11:22:00,66.0,49.0,29.83,SSW,206,2.0,5.0,55,0.00,,,0.04,,2013-08-14 15:22:00,
2013-08-14 11:56:00,67.0,51.0,29.83,SSW,206,2.0,8.0,57,0.00,,,0.03,,2013-08-14 15:56:00,
2013-08-14 12:28:00,69.0,52.0,29.83,SSW,210,2.0,8.0,55,0.00,,,0.02,,2013-08-14 16:28:00,
2013-08-14 12:59:00,68.0,50.0,29.83,SW,216,1.0,4.0,53,0.00,,,0.02,,2013-08-14 16:59:00,
2013-08-14 13:29:00,69.0,51.0,29.83,SSE,159,1.0,7.0,53,0.00,,,0.02,,2013-08-14 17:29:00,
2013-08-14 13:55:00,70.0,54.0,29.84,East,99,1.0,6.0,56,0.00,,,0.02,,2013-08-14 17:55:00,
2013-08-14 14:30:00,-999.0,-99.9,29.84,SW,226,0.0,5.0,54,0.00,,,0.02,,2013-08-14 18:30:00,
2013-08-14 14:56:00,70.0,53.0,29.85,South,182,1.0,4.0,54,0.00,,,0.02,,2013-08-14 18:56:00,
2013-08-14 15:14:00,69.0,53.0,29.85,South,177,1.0,5.0,56,0.00,,,0.02,,2013-08-14 19:14:00,
2013-08-14 15:54:00,70.0,54.0,29.84,NE,36,1.0,8.0,57,0.00,,,0.02,,2013-08-14 19:54:00,
2013-08-14 16:52:00,70.0,53.0,29.85,South,185,2.0,5.0,55,0.00,,,0.02,,2013-08-14 20:52:00,
2013-08-14 17:24:00,70.0,54.0,29.85,SSW,192,1.0,6.0,56,0.00,,,0.02,,2013-08-14 21:24:00,
2013-08-14 17:55:00,70.0,54.0,29.86,East,90,0.0,7.0,56,0.00,,,0.02,,2013-08-14 21:55:00,
2013-08-14 18:23:00,69.0,53.0,29.87,NNE,28,1.0,4.0,56,0.00,,,0.02,,2013-08-14 22:23:00,
2013-08-14 18:54:00,68.0,52.0,29.88,SSE,152,0.0,5.0,56,0.00,,,0.02,,2013-08-14 22:54:00,
2013-08-14 19:25:00,68.0,54.0,29.88,East,80,0.0,1.0,60,0.00,,,0.02,,2013-08-14 23:25:00,
2013-08-14 19:56:00,66.0,51.0,29.90,SW,227,0.0,0.0,59,0.00,,,0.02,,2013-08-14 23:56:00,
2013-08-14 20:12:00,66.0,51.0,29.91,SSE,150,0.0,1.0,59,0.00,,,0.02,,2013-08-15 00:12:00,
2013-08-14 20:23:00,66.0,53.0,29.91,East,84,0.0,3.0,62,0.00,,,0.02,,2013-08-15 00:23:00,
2013-08-14 20:43:00,65.0,52.0,29.92,East,93,0.0,0.0,63,0.00,,,0.02,,2013-08-15 00:43:00,
2013-08-14 20:52:00,65.0,52.0,29.93,East,93,0.0,0.0,63,0.00,,,0.02,,2013-08-15 00:52:00,
2013-08-14 21:16:00,64.0,51.0,29.94,East,92,0.0,0.0,63,0.00,,,0.02,,2013-08-15 01:16:00,
2013-08-14 21:22:00,64.0,52.0,29.95,East,91,0.0,0.0,64,0.00,,,0.02,,2013-08-15 01:22:00,
2013-08-14 21:52:00,62.0,51.0,29.97,East,92,0.0,0.0,67,0.00,,,0.02,,2013-08-15 01:52:00,
2013-08-14 22:21:00,62.0,52.0,29.98,East,91,0.0,0.0,70,0.00,,,0.02,,2013-08-15 02:21:00,
2013-08-14 23:22:00,60.0,52.0,29.99,East,91,0.0,0.0,74,0.00,,,0.02,,2013-08-15 03:22:00,
2013-08-14 23:53:00,59.0,51.0,30.00,East,92,0.0,0.0,76,0.00,,,0.02,,2013-08-15 03:53:00,